| time (UTC) | temp C | wind direction | speed KPH | gust KPH | rain 1hr cm | rain 24hr cm | rain mn cm | humidity % | barometer mb |
| 20260507023540 | 16 | 215 | 8.0 | 11.3 | 0.00 | 0.00 | 0.00 | 81 | 1016.4 |
| 20260507023103 | 16 | 165 | 6.4 | 11.3 | 0.00 | 0.00 | 0.00 | 79 | 1016.3 |
| 20260507022540 | 16 | 205 | 4.8 | 12.9 | 0.00 | 0.00 | 0.00 | 78 | 1016.3 |
| 20260507022040 | 16 | 217 | 6.4 | 12.9 | 0.00 | 0.00 | 0.00 | 78 | 1016.3 |
| 20260507021550 | 16 | 186 | 4.8 | 11.3 | 0.00 | 0.00 | 0.00 | 78 | 1016.3 |
| 20260507021040 | 16 | 172 | 4.8 | 11.3 | 0.00 | 0.00 | 0.00 | 78 | 1016.2 |
| 20260507020540 | 16 | 203 | 6.4 | 12.9 | 0.00 | 0.00 | 0.00 | 79 | 1016.2 |
| 20260507020057 | 16 | 232 | 6.4 | 12.9 | 0.00 | 0.00 | 0.00 | 79 | 1016.2 |
| 20260507015539 | 16 | 201 | 4.8 | 16.1 | 0.00 | 0.00 | 0.00 | 79 | 1016.2 |
| 20260507015040 | 16 | 182 | 9.7 | 16.1 | 0.00 | 0.00 | 0.00 | 79 | 1016.2 |
| 20260507014553 | 16 | 200 | 8.0 | 19.3 | 0.00 | 0.00 | 0.00 | 79 | 1016.2 |
| 20260507014040 | 17 | 177 | 9.7 | 19.3 | 0.00 | 0.00 | 0.00 | 78 | 1016.1 |
| 20260507013541 | 17 | 189 | 8.0 | 16.1 | 0.00 | 0.00 | 0.00 | 77 | 1016.1 |
| 20260507013045 | 17 | 197 | 9.7 | 16.1 | 0.00 | 0.00 | 0.00 | 76 | 1016.1 |
| 20260507012546 | 17 | 181 | 9.7 | 16.1 | 0.00 | 0.00 | 0.00 | 74 | 1016.2 |
| 20260507012040 | 17 | 195 | 8.0 | 14.5 | 0.00 | 0.00 | 0.00 | 73 | 1016.1 |
| 20260507011550 | 18 | 180 | 8.0 | 16.1 | 0.00 | 0.00 | 0.00 | 73 | 1016.1 |
| 20260507011039 | 18 | 191 | 6.4 | 16.1 | 0.00 | 0.00 | 0.00 | 72 | 1016.1 |
| 20260507010540 | 18 | 230 | 8.0 | 16.1 | 0.00 | 0.00 | 0.00 | 71 | 1016.1 |
| 20260507010050 | 18 | 225 | 8.0 | 17.7 | 0.00 | 0.00 | 0.00 | 72 | 1016.3 |
| 20260507005540 | 18 | 207 | 9.7 | 17.7 | 0.00 | 0.00 | 0.00 | 71 | 1016.2 |
| 20260507005040 | 18 | 189 | 8.0 | 22.5 | 0.00 | 0.00 | 0.00 | 70 | 1016.2 |
| 20260507004551 | 18 | 236 | 8.0 | 22.5 | 0.00 | 0.00 | 0.00 | 71 | 1016.3 |
| 20260507004039 | 17 | 183 | 9.7 | 22.5 | 0.00 | 0.00 | 0.00 | 70 | 1016.3 |
| 20260507003541 | 18 | 177 | 9.7 | 22.5 | 0.00 | 0.00 | 0.00 | 71 | 1016.3 |
| 20260507003103 | 17 | 276 | 11.3 | 25.7 | 0.00 | 0.00 | 0.00 | 71 | 1016.2 |
| 20260507002545 | 17 | 243 | 11.3 | 25.7 | 0.00 | 0.00 | 0.00 | 70 | 1016.3 |
| 20260507002042 | 17 | 248 | 12.9 | 25.7 | 0.00 | 0.00 | 0.00 | 68 | 1016.3 |
| 20260507001611 | 18 | 242 | 12.9 | 24.1 | 0.00 | 0.00 | 0.00 | 68 | 1016.4 |
| 20260507001041 | 18 | 245 | 14.5 | 24.1 | 0.00 | 0.00 | 0.00 | 67 | 1016.3 |
| 20260507000543 | 18 | 202 | 14.5 | 27.4 | 0.00 | 0.00 | 0.00 | 67 | 1016.3 |
| 20260507000052 | 18 | 206 | 12.9 | 27.4 | 0.00 | 0.00 | 0.00 | 67 | 1016.3 |
| 20260506235540 | 18 | 216 | 11.3 | 22.5 | 0.00 | 0.00 | 0.00 | 68 | 1016.3 |
| 20260506235040 | 18 | 210 | 12.9 | 24.1 | 0.00 | 0.00 | 0.00 | 67 | 1016.4 |
| 20260506234554 | 18 | 241 | 14.5 | 30.6 | 0.00 | 0.00 | 0.00 | 67 | 1016.2 |
| 20260506234040 | 18 | 227 | 16.1 | 30.6 | 0.00 | 0.00 | 0.00 | 67 | 1016.3 |
| 20260506233540 | 18 | 244 | 12.9 | 25.7 | 0.00 | 0.00 | 0.00 | 65 | 1016.3 |
| 20260506233050 | 18 | 258 | 9.7 | 27.4 | 0.00 | 0.00 | 0.00 | 66 | 1016.2 |
| 20260506232539 | 18 | 223 | 12.9 | 27.4 | 0.00 | 0.00 | 0.00 | 69 | 1016.3 |
| 20260506232040 | 18 | 257 | 12.9 | 27.4 | 0.00 | 0.00 | 0.00 | 68 | 1016.3 |
| 20260506231554 | 18 | 221 | 14.5 | 25.7 | 0.00 | 0.00 | 0.00 | 69 | 1016.4 |
| 20260506231040 | 17 | 254 | 17.7 | 27.4 | 0.00 | 0.00 | 0.00 | 69 | 1016.4 |
| 20260506230540 | 18 | 209 | 12.9 | 30.6 | 0.00 | 0.00 | 0.00 | 69 | 1016.4 |
| 20260506230058 | 18 | 254 | 12.9 | 30.6 | 0.00 | 0.00 | 0.00 | 68 | 1016.4 |
| 20260506225540 | 18 | 209 | 12.9 | 30.6 | 0.00 | 0.00 | 0.00 | 68 | 1016.5 |
| 20260506225040 | 18 | 225 | 9.7 | 22.5 | 0.00 | 0.00 | 0.00 | 69 | 1016.6 |
| 20260506224548 | 18 | 183 | 11.3 | 22.5 | 0.00 | 0.00 | 0.00 | 70 | 1016.7 |
| 20260506224039 | 18 | 180 | 12.9 | 22.5 | 0.00 | 0.00 | 0.00 | 71 | 1016.8 |
| 20260506223541 | 18 | 230 | 12.9 | 29.0 | 0.00 | 0.00 | 0.00 | 71 | 1016.8 |
| 20260506223055 | 18 | 188 | 14.5 | 29.0 | 0.00 | 0.00 | 0.00 | 70 | 1016.9 |
| 20260506222540 | 18 | 232 | 11.3 | 22.5 | 0.00 | 0.00 | 0.00 | 68 | 1017.2 |
| 20260506222040 | 18 | 209 | 9.7 | 22.5 | 0.00 | 0.00 | 0.00 | 71 | 1017.2 |
| 20260506221605 | 18 | 184 | 11.3 | 22.5 | 0.00 | 0.00 | 0.00 | 70 | 1017.3 |
| 20260506221039 | 18 | 222 | 12.9 | 22.5 | 0.00 | 0.00 | 0.00 | 72 | 1017.3 |
| 20260506220539 | 18 | 288 | 14.5 | 22.5 | 0.00 | 0.00 | 0.00 | 69 | 1017.3 |
| 20260506220051 | 18 | 257 | 11.3 | 24.1 | 0.00 | 0.00 | 0.00 | 70 | 1017.4 |
| 20260506215542 | 18 | 240 | 12.9 | 24.1 | 0.00 | 0.00 | 0.00 | 69 | 1017.5 |
| 20260506215040 | 18 | 226 | 9.7 | 25.7 | 0.00 | 0.00 | 0.00 | 71 | 1017.6 |
| 20260506214555 | 18 | 219 | 12.9 | 25.7 | 0.00 | 0.00 | 0.00 | 71 | 1017.6 |
| 20260506214040 | 18 | 196 | 12.9 | 24.1 | 0.00 | 0.00 | 0.00 | 71 | 1017.7 |
| 20260506213540 | 18 | 252 | 14.5 | 24.1 | 0.00 | 0.00 | 0.00 | 72 | 1017.8 |
| 20260506213103 | 18 | 211 | 12.9 | 25.7 | 0.00 | 0.00 | 0.00 | 72 | 1017.8 |
| 20260506212540 | 18 | 190 | 12.9 | 25.7 | 0.00 | 0.00 | 0.00 | 70 | 1017.8 |
| 20260506212040 | 18 | 212 | 12.9 | 25.7 | 0.00 | 0.00 | 0.00 | 70 | 1017.8 |
| 20260506211548 | 18 | 230 | 11.3 | 25.7 | 0.00 | 0.00 | 0.00 | 70 | 1017.8 |
| 20260506211039 | 18 | 202 | 9.7 | 24.1 | 0.00 | 0.00 | 0.00 | 68 | 1017.9 |
| 20260506210540 | 18 | 194 | 9.7 | 24.1 | 0.00 | 0.00 | 0.00 | 69 | 1018.0 |
| 20260506210056 | 18 | 218 | 9.7 | 20.9 | 0.00 | 0.00 | 0.00 | 68 | 1018.0 |
| 20260506205541 | 18 | 240 | 11.3 | 22.5 | 0.00 | 0.00 | 0.00 | 66 | 1018.1 |
| 20260506205039 | 18 | 259 | 12.9 | 22.5 | 0.00 | 0.00 | 0.00 | 66 | 1018.1 |
| 20260506204547 | 18 | 219 | 9.7 | 17.7 | 0.00 | 0.00 | 0.00 | 65 | 1018.1 |
| 20260506204038 | 19 | 236 | 6.4 | 19.3 | 0.00 | 0.00 | 0.00 | 67 | 1018.0 |
| 20260506203540 | 18 | 211 | 8.0 | 20.9 | 0.00 | 0.00 | 0.00 | 67 | 1018.0 |
| 20260506203049 | 18 | 269 | 9.7 | 20.9 | 0.00 | 0.00 | 0.00 | 68 | 1018.1 |
| 20260506202541 | 18 | 201 | 9.7 | 24.1 | 0.00 | 0.00 | 0.00 | 70 | 1018.1 |
| 20260506202040 | 18 | 176 | 9.7 | 24.1 | 0.00 | 0.00 | 0.00 | 70 | 1018.2 |
| 20260506201549 | 18 | 186 | 11.3 | 19.3 | 0.00 | 0.00 | 0.00 | 69 | 1018.2 |
| 20260506201040 | 18 | 157 | 9.7 | 22.5 | 0.00 | 0.00 | 0.00 | 70 | 1018.3 |
| 20260506200548 | 18 | 217 | 11.3 | 22.5 | 0.00 | 0.00 | 0.00 | 68 | 1018.3 |
| 20260506200056 | 18 | 214 | 8.0 | 19.3 | 0.00 | 0.00 | 0.00 | 69 | 1018.3 |
| 20260506195541 | 18 | 232 | 8.0 | 19.3 | 0.00 | 0.00 | 0.00 | 69 | 1018.4 |
| 20260506195041 | 18 | 169 | 8.0 | 22.5 | 0.00 | 0.00 | 0.00 | 70 | 1018.3 |
| 20260506194554 | 18 | 222 | 6.4 | 22.5 | 0.00 | 0.00 | 0.00 | 72 | 1018.3 |
| 20260506194040 | 18 | 193 | 11.3 | 22.5 | 0.00 | 0.00 | 0.00 | 72 | 1018.4 |
| 20260506193543 | 18 | 209 | 9.7 | 20.9 | 0.00 | 0.00 | 0.00 | 71 | 1018.4 |
| 20260506193101 | 18 | 209 | 12.9 | 20.9 | 0.00 | 0.00 | 0.00 | 72 | 1018.5 |
| 20260506192540 | 18 | 202 | 9.7 | 22.5 | 0.00 | 0.00 | 0.00 | 72 | 1018.5 |
| 20260506192040 | 18 | 188 | 11.3 | 22.5 | 0.00 | 0.00 | 0.00 | 73 | 1018.5 |
| 20260506191555 | 17 | 218 | 9.7 | 22.5 | 0.00 | 0.00 | 0.00 | 73 | 1018.5 |
| 20260506191042 | 18 | 163 | 14.5 | 20.9 | 0.00 | 0.00 | 0.00 | 72 | 1018.5 |
| 20260506190538 | 18 | 213 | 8.0 | 20.9 | 0.00 | 0.00 | 0.00 | 73 | 1018.4 |
| 20260506190054 | 18 | 214 | 9.7 | 17.7 | 0.00 | 0.00 | 0.00 | 71 | 1018.5 |
| 20260506185537 | 18 | 213 | 6.4 | 17.7 | 0.00 | 0.00 | 0.00 | 72 | 1018.5 |
| 20260506185040 | 18 | 211 | 8.0 | 19.3 | 0.00 | 0.00 | 0.00 | 72 | 1018.6 |
| 20260506184557 | 17 | 208 | 8.0 | 20.9 | 0.00 | 0.00 | 0.00 | 74 | 1018.5 |
| 20260506184043 | 17 | 146 | 11.3 | 20.9 | 0.00 | 0.00 | 0.00 | 74 | 1018.6 |
| 20260506183544 | 17 | 216 | 12.9 | 24.1 | 0.00 | 0.00 | 0.00 | 74 | 1018.6 |
| 20260506183053 | 17 | 190 | 12.9 | 24.1 | 0.00 | 0.00 | 0.00 | 75 | 1018.7 |
| 20260506182541 | 17 | 205 | 11.3 | 22.5 | 0.00 | 0.00 | 0.00 | 74 | 1018.6 |
| 20260506182042 | 17 | 218 | 9.7 | 20.9 | 0.00 | 0.00 | 0.00 | 75 | 1018.6 |
| 20260506181555 | 17 | 194 | 12.9 | 20.9 | 0.00 | 0.00 | 0.00 | 75 | 1018.7 |
| 20260506181040 | 17 | 215 | 8.0 | 20.9 | 0.00 | 0.00 | 0.00 | 74 | 1018.7 |
| 20260506180543 | 18 | 205 | 11.3 | 19.3 | 0.00 | 0.00 | 0.00 | 74 | 1018.7 |
| 20260506180053 | 18 | 219 | 8.0 | 20.9 | 0.00 | 0.00 | 0.00 | 74 | 1018.6 |
| 20260506175540 | 17 | 178 | 11.3 | 20.9 | 0.00 | 0.00 | 0.00 | 73 | 1018.7 |
| 20260506175040 | 18 | 167 | 8.0 | 16.1 | 0.00 | 0.00 | 0.00 | 72 | 1018.7 |
| 20260506174556 | 18 | 228 | 6.4 | 14.5 | 0.00 | 0.00 | 0.00 | 72 | 1018.6 |
| 20260506174040 | 17 | 232 | 6.4 | 16.1 | 0.00 | 0.00 | 0.00 | 71 | 1018.6 |
| 20260506173540 | 17 | 238 | 8.0 | 16.1 | 0.00 | 0.00 | 0.00 | 72 | 1018.7 |
| 20260506173059 | 17 | 190 | 8.0 | 16.1 | 0.00 | 0.00 | 0.00 | 72 | 1018.7 |
| 20260506172541 | 17 | 207 | 4.8 | 17.7 | 0.00 | 0.00 | 0.00 | 72 | 1018.6 |
| 20260506172041 | 17 | 215 | 9.7 | 17.7 | 0.00 | 0.00 | 0.00 | 71 | 1018.7 |
| 20260506171551 | 17 | 254 | 6.4 | 14.5 | 0.00 | 0.00 | 0.00 | 71 | 1018.6 |
| 20260506171040 | 17 | 256 | 3.2 | 17.7 | 0.00 | 0.00 | 0.00 | 71 | 1018.5 |
| 20260506170541 | 17 | 183 | 6.4 | 17.7 | 0.00 | 0.00 | 0.00 | 72 | 1018.5 |
| 20260506170054 | 17 | 176 | 8.0 | 14.5 | 0.00 | 0.00 | 0.00 | 72 | 1018.6 |
| 20260506165543 | 17 | 215 | 3.2 | 16.1 | 0.00 | 0.00 | 0.00 | 73 | 1018.6 |
| 20260506165040 | 17 | 170 | 4.8 | 16.1 | 0.00 | 0.00 | 0.00 | 74 | 1018.6 |
| 20260506164611 | 17 | 181 | 6.4 | 14.5 | 0.00 | 0.00 | 0.00 | 73 | 1018.7 |
| 20260506164039 | 17 | 228 | 6.4 | 14.5 | 0.00 | 0.00 | 0.00 | 74 | 1018.6 |
| 20260506163540 | 16 | 171 | 4.8 | 12.9 | 0.00 | 0.00 | 0.00 | 74 | 1018.7 |
| 20260506163056 | 16 | 195 | 3.2 | 11.3 | 0.00 | 0.00 | 0.00 | 73 | 1018.7 |
| 20260506162543 | 16 | 173 | 6.4 | 11.3 | 0.00 | 0.00 | 0.00 | 73 | 1018.7 |
| 20260506162042 | 16 | 172 | 4.8 | 9.7 | 0.00 | 0.00 | 0.00 | 73 | 1018.6 |
| 20260506161553 | 16 | 219 | 3.2 | 9.7 | 0.00 | 0.00 | 0.00 | 73 | 1018.7 |
| 20260506161040 | 16 | 0 | 3.2 | 8.0 | 0.00 | 0.00 | 0.00 | 73 | 1018.7 |
| 20260506160542 | 16 | 193 | 4.8 | 8.0 | 0.00 | 0.00 | 0.00 | 72 | 1018.7 |
| 20260506155540 | 16 | 0 | 1.6 | 9.7 | 0.00 | 0.00 | 0.00 | 73 | 1018.6 |
| 20260506155040 | 16 | 84 | 0.0 | 6.4 | 0.00 | 0.00 | 0.00 | 73 | 1018.6 |
| 20260506154554 | 15 | 5 | 1.6 | 8.0 | 0.00 | 0.00 | 0.00 | 73 | 1018.6 |
| 20260506154040 | 15 | 42 | 3.2 | 11.3 | 0.00 | 0.00 | 0.00 | 74 | 1018.6 |
| 20260506153544 | 15 | 360 | 4.8 | 11.3 | 0.00 | 0.00 | 0.00 | 74 | 1018.5 |
| 20260506153050 | 15 | 13 | 6.4 | 11.3 | 0.00 | 0.00 | 0.00 | 75 | 1018.6 |
| 20260506152540 | 15 | 48 | 4.8 | 14.5 | 0.00 | 0.00 | 0.00 | 76 | 1018.6 |
| 20260506152043 | 14 | 15 | 3.2 | 14.5 | 0.00 | 0.00 | 0.00 | 77 | 1018.7 |
| 20260506151554 | 14 | 49 | 8.0 | 14.5 | 0.00 | 0.00 | 0.00 | 77 | 1018.7 |
| 20260506151048 | 13 | 5 | 6.4 | 16.1 | 0.00 | 0.00 | 0.00 | 78 | 1018.6 |
| 20260506150539 | 13 | 349 | 8.0 | 16.1 | 0.00 | 0.00 | 0.00 | 78 | 1018.7 |
| 20260506150103 | 13 | 355 | 4.8 | 16.1 | 0.00 | 0.00 | 0.00 | 79 | 1018.6 |
| 20260506145542 | 13 | 24 | 9.7 | 16.1 | 0.00 | 0.00 | 0.00 | 78 | 1018.6 |
| 20260506145040 | 13 | 30 | 4.8 | 16.1 | 0.00 | 0.00 | 0.00 | 80 | 1018.6 |
| 20260506144552 | 13 | 30 | 9.7 | 16.1 | 0.00 | 0.00 | 0.00 | 79 | 1018.7 |
| 20260506144040 | 13 | 36 | 6.4 | 16.1 | 0.00 | 0.00 | 0.00 | 80 | 1018.6 |
| 20260506143540 | 13 | 9 | 6.4 | 16.1 | 0.00 | 0.00 | 0.00 | 81 | 1018.5 |
| 20260506143100 | 12 | 40 | 6.4 | 16.1 | 0.00 | 0.00 | 0.00 | 82 | 1018.4 |
| 20260506142540 | 12 | 11 | 4.8 | 16.1 | 0.00 | 0.00 | 0.00 | 83 | 1018.5 |
| 20260506142039 | 12 | 9 | 8.0 | 14.5 | 0.00 | 0.00 | 0.00 | 84 | 1018.4 |
| 20260506141555 | 12 | 9 | 6.4 | 12.9 | 0.00 | 0.00 | 0.00 | 84 | 1018.4 |
| 20260506141040 | 11 | 29 | 4.8 | 12.9 | 0.00 | 0.00 | 0.00 | 85 | 1018.4 |
| 20260506140540 | 11 | 28 | 6.4 | 11.3 | 0.00 | 0.00 | 0.00 | 85 | 1018.4 |
| 20260506140051 | 11 | 12 | 4.8 | 9.7 | 0.00 | 0.00 | 0.00 | 86 | 1018.3 |
| 20260506135540 | 11 | 5 | 4.8 | 9.7 | 0.00 | 0.00 | 0.00 | 86 | 1018.4 |
| 20260506135039 | 11 | 40 | 4.8 | 9.7 | 0.00 | 0.00 | 0.00 | 86 | 1018.4 |
| 20260506134554 | 11 | 18 | 3.2 | 8.0 | 0.00 | 0.00 | 0.00 | 86 | 1018.3 |
| 20260506134042 | 11 | 42 | 3.2 | 8.0 | 0.00 | 0.00 | 0.00 | 86 | 1018.3 |
| 20260506133540 | 11 | 28 | 3.2 | 8.0 | 0.00 | 0.00 | 0.00 | 85 | 1018.3 |
| 20260506133107 | 11 | 61 | 3.2 | 8.0 | 0.00 | 0.00 | 0.00 | 85 | 1018.3 |
| 20260506132540 | 11 | 49 | 3.2 | 6.4 | 0.00 | 0.00 | 0.00 | 84 | 1018.3 |
| 20260506132043 | 11 | 59 | 3.2 | 8.0 | 0.00 | 0.00 | 0.00 | 84 | 1018.2 |
| 20260506131605 | 11 | 42 | 3.2 | 11.3 | 0.00 | 0.00 | 0.00 | 85 | 1018.2 |
| 20260506131042 | 11 | 19 | 4.8 | 11.3 | 0.00 | 0.00 | 0.00 | 85 | 1018.1 |
| 20260506130540 | 11 | 360 | 4.8 | 9.7 | 0.00 | 0.00 | 0.00 | 85 | 1018.1 |
| 20260506130044 | 11 | 341 | 1.6 | 8.0 | 0.00 | 0.00 | 0.00 | 86 | 1018.0 |
| 20260506125539 | 11 | 36 | 3.2 | 9.7 | 0.00 | 0.00 | 0.00 | 86 | 1018.0 |
| 20260506125039 | 11 | 30 | 4.8 | 11.3 | 0.00 | 0.00 | 0.00 | 86 | 1018.0 |
| 20260506124550 | 11 | 5 | 4.8 | 11.3 | 0.00 | 0.00 | 0.00 | 86 | 1017.9 |
| 20260506124039 | 11 | 20 | 3.2 | 6.4 | 0.00 | 0.00 | 0.00 | 86 | 1017.9 |
| 20260506123543 | 11 | 18 | 3.2 | 8.0 | 0.00 | 0.00 | 0.00 | 86 | 1017.9 |
| 20260506123050 | 11 | 360 | 4.8 | 9.7 | 0.00 | 0.00 | 0.00 | 86 | 1017.9 |
| 20260506122540 | 11 | 5 | 4.8 | 9.7 | 0.00 | 0.00 | 0.00 | 87 | 1017.7 |
| 20260506122041 | 11 | 352 | 4.8 | 9.7 | 0.00 | 0.00 | 0.00 | 87 | 1017.7 |
| 20260506121554 | 11 | 5 | 4.8 | 9.7 | 0.00 | 0.00 | 0.00 | 88 | 1017.6 |
| 20260506121040 | 11 | 360 | 3.2 | 8.0 | 0.00 | 0.00 | 0.00 | 87 | 1017.5 |
| 20260506120540 | 11 | 344 | 3.2 | 8.0 | 0.00 | 0.00 | 0.00 | 87 | 1017.6 |
| 20260506120100 | 11 | 343 | 1.6 | 8.0 | 0.00 | 0.00 | 0.00 | 87 | 1017.5 |
| 20260506115539 | 11 | 350 | 3.2 | 8.0 | 0.00 | 0.00 | 0.00 | 87 | 1017.6 |
| 20260506115040 | 11 | 360 | 4.8 | 8.0 | 0.00 | 0.00 | 0.00 | 87 | 1017.5 |
| 20260506114551 | 11 | 14 | 4.8 | 8.0 | 0.00 | 0.00 | 0.00 | 87 | 1017.6 |
| 20260506114044 | 11 | 12 | 4.8 | 11.3 | 0.00 | 0.00 | 0.00 | 87 | 1017.6 |
| 20260506113540 | 11 | 13 | 4.8 | 11.3 | 0.00 | 0.00 | 0.00 | 87 | 1017.5 |
| 20260506113051 | 11 | 10 | 6.4 | 11.3 | 0.00 | 0.00 | 0.00 | 87 | 1017.6 |
| 20260506112545 | 11 | 9 | 4.8 | 11.3 | 0.00 | 0.00 | 0.00 | 87 | 1017.6 |
| 20260506112040 | 11 | 351 | 4.8 | 11.3 | 0.00 | 0.00 | 0.00 | 87 | 1017.4 |
| 20260506111550 | 11 | 13 | 4.8 | 11.3 | 0.00 | 0.00 | 0.00 | 88 | 1017.4 |
| 20260506111040 | 11 | 19 | 4.8 | 9.7 | 0.00 | 0.00 | 0.00 | 88 | 1017.5 |
| 20260506110540 | 11 | 5 | 4.8 | 11.3 | 0.00 | 0.00 | 0.00 | 88 | 1017.6 |
| 20260506110058 | 11 | 16 | 4.8 | 11.3 | 0.00 | 0.00 | 0.00 | 88 | 1017.5 |
| 20260506105540 | 11 | 11 | 4.8 | 9.7 | 0.00 | 0.00 | 0.00 | 88 | 1017.6 |
| 20260506105042 | 11 | 355 | 3.2 | 6.4 | 0.00 | 0.00 | 0.00 | 88 | 1017.5 |
| 20260506104603 | 11 | 360 | 3.2 | 8.0 | 0.00 | 0.00 | 0.00 | 87 | 1017.5 |
| 20260506104040 | 11 | 360 | 3.2 | 8.0 | 0.00 | 0.00 | 0.00 | 88 | 1017.5 |
| 20260506103540 | 11 | 12 | 3.2 | 12.9 | 0.00 | 0.00 | 0.00 | 88 | 1017.4 |
| 20260506103050 | 11 | 43 | 4.8 | 12.9 | 0.00 | 0.00 | 0.00 | 88 | 1017.4 |
| 20260506102542 | 11 | 351 | 6.4 | 14.5 | 0.00 | 0.00 | 0.00 | 88 | 1017.3 |
| 20260506102042 | 11 | 9 | 8.0 | 14.5 | 0.00 | 0.00 | 0.00 | 89 | 1017.3 |
| 20260506101549 | 11 | 23 | 4.8 | 12.9 | 0.00 | 0.00 | 0.00 | 89 | 1017.4 |
| 20260506101041 | 11 | 35 | 6.4 | 12.9 | 0.00 | 0.00 | 0.00 | 89 | 1017.4 |
| 20260506100540 | 11 | 5 | 3.2 | 12.9 | 0.00 | 0.00 | 0.00 | 88 | 1017.4 |
| 20260506100058 | 11 | 49 | 3.2 | 14.5 | 0.00 | 0.00 | 0.00 | 88 | 1017.4 |
| 20260506095539 | 11 | 18 | 6.4 | 14.5 | 0.00 | 0.00 | 0.00 | 88 | 1017.4 |
| 20260506095041 | 11 | 22 | 4.8 | 11.3 | 0.00 | 0.00 | 0.00 | 87 | 1017.4 |
| 20260506094550 | 11 | 23 | 3.2 | 9.7 | 0.00 | 0.00 | 0.00 | 87 | 1017.4 |
| 20260506094040 | 12 | 54 | 3.2 | 8.0 | 0.00 | 0.00 | 0.00 | 87 | 1017.4 |
| 20260506093540 | 12 | 28 | 4.8 | 8.0 | 0.00 | 0.00 | 0.00 | 88 | 1017.6 |
| 20260506093051 | 12 | 5 | 3.2 | 9.7 | 0.00 | 0.00 | 0.00 | 88 | 1017.5 |
| 20260506092540 | 12 | 38 | 4.8 | 9.7 | 0.00 | 0.00 | 0.00 | 88 | 1017.7 |
| 20260506092040 | 12 | 335 | 3.2 | 8.0 | 0.00 | 0.00 | 0.00 | 88 | 1017.7 |
| 20260506091549 | 12 | 360 | 4.8 | 8.0 | 0.00 | 0.00 | 0.00 | 88 | 1017.7 |
| 20260506091040 | 12 | 12 | 1.6 | 6.4 | 0.00 | 0.00 | 0.00 | 88 | 1017.6 |
| 20260506090540 | 12 | 15 | 1.6 | 4.8 | 0.00 | 0.00 | 0.00 | 88 | 1017.7 |
| 20260506090048 | 12 | 24 | 0.0 | 4.8 | 0.00 | 0.00 | 0.00 | 88 | 1017.7 |
| 20260506085539 | 12 | 24 | 1.6 | 4.8 | 0.00 | 0.00 | 0.00 | 88 | 1017.7 |
| 20260506085039 | 12 | 24 | 0.0 | 6.4 | 0.00 | 0.00 | 0.00 | 88 | 1017.7 |
| 20260506084615 | 12 | 24 | 3.2 | 6.4 | 0.00 | 0.00 | 0.00 | 88 | 1017.9 |
| 20260506084039 | 12 | 355 | 3.2 | 6.4 | 0.00 | 0.00 | 0.00 | 88 | 1017.9 |
| 20260506083538 | 12 | 18 | 1.6 | 6.4 | 0.00 | 0.00 | 0.00 | 88 | 1017.8 |
| 20260506083049 | 12 | 18 | 1.6 | 4.8 | 0.00 | 0.00 | 0.00 | 88 | 1017.9 |
| 20260506082541 | 12 | 30 | 1.6 | 8.0 | 0.00 | 0.00 | 0.00 | 88 | 1017.8 |
| 20260506082039 | 12 | 31 | 1.6 | 11.3 | 0.00 | 0.00 | 0.00 | 88 | 1017.8 |
| 20260506081556 | 12 | 28 | 4.8 | 11.3 | 0.00 | 0.00 | 0.00 | 88 | 1017.8 |
| 20260506081040 | 12 | 360 | 1.6 | 8.0 | 0.00 | 0.00 | 0.00 | 88 | 1017.9 |
| 20260506080540 | 12 | 31 | 3.2 | 9.7 | 0.00 | 0.00 | 0.00 | 88 | 1018.0 |
| 20260506073047 | 12 | 32 | 1.6 | 8.0 | 0.00 | 0.00 | 0.00 | 88 | 1017.8 |
| 20260506072539 | 12 | 39 | 3.2 | 8.0 | 0.00 | 0.00 | 0.00 | 88 | 1017.8 |
| 20260506072039 | 12 | 5 | 3.2 | 6.4 | 0.00 | 0.00 | 0.00 | 88 | 1017.8 |
| 20260506071545 | 12 | 41 | 1.6 | 8.0 | 0.00 | 0.00 | 0.00 | 88 | 1017.8 |
| 20260506071039 | 12 | 41 | 1.6 | 8.0 | 0.00 | 0.00 | 0.00 | 88 | 1017.7 |
| 20260506070540 | 12 | 9 | 3.2 | 8.0 | 0.00 | 0.00 | 0.00 | 88 | 1017.7 |
| 20260506062039 | 12 | 9 | 4.8 | 8.0 | 0.00 | 0.00 | 0.00 | 87 | 1017.2 |
| 20260506061554 | 12 | 17 | 3.2 | 6.4 | 0.00 | 0.00 | 0.00 | 87 | 1017.1 |
| 20260506061039 | 12 | 19 | 1.6 | 6.4 | 0.00 | 0.00 | 0.00 | 87 | 1017.1 |
| 20260506060540 | 12 | 20 | 3.2 | 6.4 | 0.00 | 0.00 | 0.00 | 87 | 1017.1 |
| 20260506051039 | 13 | 51 | 3.2 | 6.4 | 0.00 | 0.00 | 0.00 | 86 | 1016.8 |
| 20260506050539 | 13 | 28 | 3.2 | 6.4 | 0.00 | 0.00 | 0.00 | 87 | 1016.6 |
| 20260506045042 | 13 | 54 | 1.6 | 8.0 | 0.00 | 0.00 | 0.00 | 86 | 1016.5 |
| 20260506044546 | 13 | 360 | 1.6 | 8.0 | 0.00 | 0.00 | 0.00 | 86 | 1016.5 |
| 20260506044045 | 13 | 69 | 3.2 | 8.0 | 0.00 | 0.00 | 0.00 | 86 | 1016.4 |
| 20260506043540 | 13 | 71 | 1.6 | 8.0 | 0.00 | 0.00 | 0.00 | 86 | 1016.5 |
| 20260506043049 | 13 | 86 | 3.2 | 8.0 | 0.00 | 0.00 | 0.00 | 86 | 1016.4 |
| 20260506042540 | 13 | 78 | 3.2 | 11.3 | 0.00 | 0.00 | 0.00 | 86 | 1016.3 |
| 20260506042040 | 13 | 80 | 4.8 | 12.9 | 0.00 | 0.00 | 0.00 | 86 | 1016.2 |
| 20260506041602 | 13 | 92 | 4.8 | 12.9 | 0.00 | 0.00 | 0.00 | 85 | 1016.2 |
| 20260506041039 | 13 | 74 | 4.8 | 11.3 | 0.00 | 0.00 | 0.00 | 85 | 1016.2 |
| 20260506040539 | 14 | 60 | 3.2 | 11.3 | 0.00 | 0.00 | 0.00 | 85 | 1016.1 |
| 20260506040051 | 14 | 71 | 3.2 | 6.4 | 0.00 | 0.00 | 0.00 | 85 | 1016.0 |
| 20260506035539 | 14 | 103 | 3.2 | 6.4 | 0.00 | 0.00 | 0.00 | 84 | 1015.9 |
| 20260506035039 | 14 | 113 | 1.6 | 8.0 | 0.00 | 0.00 | 0.00 | 84 | 1015.8 |
| 20260506034548 | 14 | 0 | 1.6 | 8.0 | 0.00 | 0.00 | 0.00 | 84 | 1015.7 |
| 20260506034043 | 14 | 169 | 1.6 | 6.4 | 0.00 | 0.00 | 0.00 | 83 | 1015.5 |
| 20260506033539 | 14 | 169 | 1.6 | 8.0 | 0.00 | 0.00 | 0.00 | 83 | 1015.6 |
| 20260506033048 | 14 | 172 | 1.6 | 8.0 | 0.00 | 0.00 | 0.00 | 83 | 1015.5 |
| 20260506032541 | 15 | 141 | 0.0 | 8.0 | 0.00 | 0.00 | 0.00 | 82 | 1015.4 |
| 20260506032041 | 15 | 175 | 3.2 | 9.7 | 0.00 | 0.00 | 0.00 | 81 | 1015.4 |
| 20260506031551 | 15 | 159 | 1.6 | 9.7 | 0.00 | 0.00 | 0.00 | 81 | 1015.2 |
| 20260506031040 | 15 | 139 | 3.2 | 9.7 | 0.00 | 0.00 | 0.00 | 80 | 1015.2 |
| 20260506030542 | 15 | 164 | 3.2 | 9.7 | 0.00 | 0.00 | 0.00 | 80 | 1015.1 |
| 20260506030049 | 15 | 170 | 1.6 | 9.7 | 0.00 | 0.00 | 0.00 | 79 | 1015.0 |
| 20260506025539 | 15 | 167 | 6.4 | 9.7 | 0.00 | 0.00 | 0.00 | 78 | 1015.0 |
| 20260506025039 | 15 | 194 | 3.2 | 11.3 | 0.00 | 0.00 | 0.00 | 77 | 1014.9 |
| 20260506024552 | 15 | 160 | 4.8 | 11.3 | 0.00 | 0.00 | 0.00 | 77 | 1014.7 |
| 20260506024040 | 15 | 188 | 3.2 | 9.7 | 0.00 | 0.00 | 0.00 | 76 | 1014.7 |